TimeEST,TemperatureF,Dew PointF,Humidity,Sea Level PressureIn,VisibilityMPH,Wind Direction,Wind SpeedMPH,Gust SpeedMPH,PrecipitationIn,Events,Conditions,WindDirDegrees,DateUTC
12:53 AM,57.9,55.0,90,30.10,9.0,Calm,Calm,-,N/A,,Clear,0,2013-02-20 05:53:00
1:53 AM,57.0,54.0,89,30.09,10.0,Calm,Calm,-,N/A,,Clear,0,2013-02-20 06:53:00
2:46 AM,55.4,53.6,94,30.09,2.0,NW,4.6,-,N/A,,Clear,310,2013-02-20 07:46:00
2:53 AM,55.9,54.0,93,30.09,5.0,NW,5.8,-,N/A,,Clear,320,2013-02-20 07:53:00
3:53 AM,55.9,55.0,97,30.08,6.0,WSW,3.5,-,N/A,,Clear,250,2013-02-20 08:53:00
4:53 AM,55.9,55.0,97,30.09,6.0,Calm,Calm,-,N/A,,Clear,0,2013-02-20 09:53:00
5:09 AM,55.4,55.4,100,30.08,1.8,Calm,Calm,-,N/A,,Clear,0,2013-02-20 10:09:00
5:21 AM,55.4,55.4,100,30.08,0.8,Calm,Calm,-,N/A,,Mist,0,2013-02-20 10:21:00
5:26 AM,55.4,53.6,94,30.08,0.2,Calm,Calm,-,N/A,Fog,Fog,0,2013-02-20 10:26:00
5:53 AM,52.0,50.0,93,30.09,0.2,WNW,4.6,-,N/A,Fog,Fog,300,2013-02-20 10:53:00
6:09 AM,53.6,51.8,94,30.09,0.8,NW,4.6,-,N/A,,Mist,310,2013-02-20 11:09:00
6:12 AM,53.6,51.8,94,30.09,1.2,NW,4.6,-,N/A,,Scattered Clouds,310,2013-02-20 11:12:00
6:16 AM,53.6,51.8,94,30.09,3.0,NW,3.5,-,N/A,,Scattered Clouds,310,2013-02-20 11:16:00
6:53 AM,55.9,54.0,93,30.10,3.0,Calm,Calm,-,N/A,,Clear,0,2013-02-20 11:53:00
7:53 AM,59.0,57.9,96,30.12,8.0,West,3.5,-,N/A,,Clear,260,2013-02-20 12:53:00
8:09 AM,60.8,59.0,94,30.12,7.0,NW,3.5,-,N/A,,Mostly Cloudy,310,2013-02-20 13:09:00
8:46 AM,64.4,62.6,94,30.13,5.0,NW,5.8,-,N/A,,Mostly Cloudy,310,2013-02-20 13:46:00
8:53 AM,64.0,62.1,93,30.13,3.0,NNW,6.9,-,N/A,,Mostly Cloudy,330,2013-02-20 13:53:00
9:03 AM,66.2,62.6,88,30.13,6.0,NW,6.9,-,N/A,,Scattered Clouds,320,2013-02-20 14:03:00
9:53 AM,72.0,62.1,71,30.13,10.0,North,5.8,-,N/A,,Clear,10,2013-02-20 14:53:00
10:53 AM,72.0,62.1,71,30.12,10.0,NE,10.4,-,N/A,,Partly Cloudy,40,2013-02-20 15:53:00
11:53 AM,73.9,62.1,66,30.12,10.0,NE,6.9,-,N/A,,Scattered Clouds,50,2013-02-20 16:53:00
12:53 PM,73.9,62.1,66,30.10,10.0,ENE,8.1,-,N/A,,Clear,70,2013-02-20 17:53:00
1:53 PM,73.9,61.0,64,30.06,10.0,ENE,8.1,-,N/A,,Partly Cloudy,70,2013-02-20 18:53:00
2:53 PM,73.9,61.0,64,30.04,10.0,East,10.4,-,N/A,,Clear,80,2013-02-20 19:53:00
3:53 PM,73.0,62.1,68,30.04,10.0,East,8.1,-,N/A,,Clear,80,2013-02-20 20:53:00
4:53 PM,73.0,62.1,68,30.05,10.0,Variable,4.6,-,N/A,,Clear,0,2013-02-20 21:53:00
5:53 PM,70.0,62.1,76,30.06,10.0,NE,4.6,-,N/A,,Scattered Clouds,40,2013-02-20 22:53:00
6:53 PM,66.9,63.0,87,30.08,10.0,NNE,4.6,-,N/A,,Scattered Clouds,30,2013-02-20 23:53:00
7:53 PM,66.0,62.1,87,30.08,10.0,Calm,Calm,-,N/A,,Clear,0,2013-02-21 00:53:00
8:53 PM,64.9,63.0,93,30.09,10.0,NNE,3.5,-,N/A,,Clear,30,2013-02-21 01:53:00
9:53 PM,66.0,63.0,90,30.10,10.0,NNE,3.5,-,N/A,,Clear,20,2013-02-21 02:53:00
10:53 PM,66.0,63.0,90,30.10,9.0,Calm,Calm,-,N/A,,Clear,0,2013-02-21 03:53:00
11:53 PM,64.0,62.1,93,30.08,5.0,North,3.5,-,N/A,,Clear,360,2013-02-21 04:53:00